Location: Penton Mewsey
(51.2167°N, 1.5167°W)
Time: 00:46:15
(UTC+00:00)

SPOT 5 - Pass Details

Date: 30 March 2020
Orbit: 624 x 814 km, 98.3° (Epoch: 30 May)

Event Time Altitude Azimuth Distance (km) Brightness Sun altitude
Exits shadow 20:44:26 29° 72° (ENE) 1,180 3.6 -19.4°
Maximum altitude 20:44:46 29° 64° (ENE) 1,170 3.7 -19.4°
Drops below altitude 10° 20:48:33 10° 4° (N) 2,020 5.6 -19.9°
Sets 20:50:55 0° 353° (N) 2,924 6.6 -20.2°
